Location: Zagreb
(45.8000°N, 16.0000°E)
Time: 09:00:56
(UTC+01:00)

Vanguard 2 Rocket - All Passes

Search period start: 28 January 2022 00:00
Search period end: 07 February 2022 00:00
Orbit: 553 x 3325 km, 32.9° (Epoch: 27 January)

Date Brightness Start Highest point End Pass type
(mag) Time Alt. Az. Time Alt. Az. Time Alt. Az.
28 Jan - 01:16:00 10° SW 01:28:40 46° SSE 01:46:38 10° E visible
28 Jan - 03:28:55 10° WSW 03:44:47 54° S 04:04:02 10° ESE visible
28 Jan - 05:44:17 10° W 06:01:27 43° SSW 06:18:28 10° SE visible
28 Jan - 08:03:39 10° W 08:16:18 21° SW 08:27:41 10° S daylight
28 Jan - 22:10:32 10° SSE 22:15:24 14° SE 22:21:15 10° ESE night (unlit)
29 Jan - 00:16:56 10° SSW 00:27:46 38° SSE 00:43:45 10° E visible
29 Jan - 02:28:41 10° WSW 02:42:58 53° S 03:02:07 10° ESE visible
29 Jan - 04:42:58 10° W 04:59:37 48° SSW 05:17:57 10° SE visible
29 Jan - 07:00:12 10° W 07:15:21 29° SW 07:29:34 10° SSE daylight
29 Jan - 23:18:27 10° SSW 23:27:25 29° SE 23:40:29 10° E visible
30 Jan - 01:28:56 10° SW 01:41:28 49° SSE 01:59:45 10° E visible
30 Jan - 03:42:12 10° WSW 03:57:42 51° S 04:16:46 10° ESE visible
30 Jan - 05:57:57 10° W 06:14:00 36° SSW 06:30:16 10° SSE visible
30 Jan - 08:20:13 10° WSW 08:28:21 14° SW 08:36:04 10° SSW daylight
30 Jan - 22:20:53 10° S 22:27:34 19° SE 22:36:37 10° E night (unlit)
31 Jan - 00:29:38 10° SW 00:40:27 43° SSE 00:57:00 10° E visible
31 Jan - 02:41:55 10° WSW 02:55:55 52° S 03:14:59 10° ESE visible
31 Jan - 04:56:28 10° W 05:12:21 42° SSW 05:30:06 10° SE visible
31 Jan - 07:14:59 10° W 07:27:34 21° SW 07:39:49 10° S daylight
31 Jan - 21:26:14 10° SE 21:28:09 11° SE 21:30:14 10° ESE night (unlit)
31 Jan - 23:30:49 10° SSW 23:39:57 35° SSE 23:54:00 10° E visible
01 Feb - 01:42:03 10° WSW 01:54:24 51° S 02:12:42 10° ESE visible
01 Feb - 03:55:37 10° W 04:10:35 47° SSW 04:29:11 10° SE visible
01 Feb - 06:12:02 10° W 06:26:26 28° SW 06:41:21 10° SSE visible
01 Feb - 22:32:37 10° SSW 22:39:57 25° SE 22:50:43 10° E night (unlit)
02 Feb - 00:42:37 10° SW 00:53:18 47° SSE 01:10:05 10° E visible
02 Feb - 02:55:16 10° WSW 03:08:54 49° S 03:27:36 10° ESE visible
02 Feb - 05:10:14 10° W 05:25:01 35° SSW 05:41:42 10° SSE visible
02 Feb - 07:31:42 10° WSW 07:39:47 14° SW 07:47:50 10° SSW daylight
02 Feb - 21:35:27 10° S 21:40:25 16° SE 21:46:51 10° ESE night (unlit)
02 Feb - 23:43:35 10° SW 23:52:40 40° SSE 00:07:15 10° E visible
03 Feb - 01:55:21 10° WSW 02:07:25 50° S 02:25:29 10° ESE visible
03 Feb - 04:09:12 10° W 04:23:26 40° SSW 04:41:10 10° SE visible
03 Feb - 06:26:57 10° W 06:38:50 21° SW 06:51:17 10° S visible
03 Feb - 22:45:01 10° SSW 22:52:33 31° SSE 23:04:18 10° E night (unlit)
04 Feb - 00:55:48 10° WSW 01:06:17 48° S 01:23:00 10° ESE visible
04 Feb - 03:08:45 10° W 03:21:52 44° SSW 03:39:53 10° SE visible
04 Feb - 05:24:26 10° W 05:37:36 27° SW 05:52:31 10° SSE visible
04 Feb - 21:47:04 10° S 21:52:52 22° SE 22:01:11 10° E night (unlit)
04 Feb - 23:56:38 10° SW 00:05:36 43° SSE 00:20:19 10° ESE visible
05 Feb - 02:08:45 10° WSW 02:20:28 47° S 02:38:01 10° ESE visible
05 Feb - 04:23:03 10° W 04:36:14 33° SSW 04:52:33 10° SSE visible
05 Feb - 06:44:04 10° WSW 06:51:13 13° SW 06:58:39 10° SSW visible
05 Feb - 20:50:32 10° SSE 20:53:35 13° SE 20:57:11 10° ESE night (unlit)
05 Feb - 22:57:49 10° SW 23:05:21 36° SSE 23:17:35 10° E night (unlit)
06 Feb - 01:09:09 10° WSW 01:19:22 47° S 01:35:44 10° ESE visible
06 Feb - 03:22:25 10° W 03:34:49 37° SSW 03:51:43 10° SE visible
06 Feb - 05:39:35 10° WSW 05:50:11 19° SW 06:02:02 10° S visible
06 Feb - 21:59:27 10° SSW 22:05:33 27° SSE 22:14:52 10° E night (unlit)
